VLG6XK LEBL-LEGR

Flight info

Callsign VLG6XK
Flight time 1h 9m
Altitude 35000
Route LOTOS DCT TORDU DCT DIKUT DCT SOPET DCT VLC DCT SERRA DCT ASTRO DCT POBOS DCT XEBAR DCT YES DCT MAMIS DCT BAZAS M985 VIBAS
Aircraft A321/M-SDFGHIJ1LORVWXYZ/LB1

Departure

Time 2026-04-10 10:24
Airport Josep Tarradellas Barcelona-El Prat Airport (LEBL)

Arrival

Time 2026-04-10 11:33
Airport F.G.L. Airport Granada-Jaén Airport (LEGR)
Time Latitude Longitude Altitude Speed Heading
2026-04-10 09:55 41.29054 2.07684 19 ft 0 kts 155°
2026-04-10 10:11 41.29064 2.07678 19 ft 4 kts 155°
2026-04-10 10:11 41.29088 2.07663 19 ft 4 kts 155°
2026-04-10 10:11 41.29112 2.07648 19 ft 4 kts 164°
2026-04-10 10:11 41.29136 2.07648 19 ft 4 kts 212°
2026-04-10 10:12 41.29156 2.07665 19 ft 4 kts 173°
2026-04-10 10:12 41.29179 2.07653 19 ft 4 kts 156°
2026-04-10 10:12 41.29184 2.07650 18 ft 0 kts 156°
2026-04-10 10:15 41.29180 2.07652 19 ft 2 kts 156°
2026-04-10 10:15 41.29167 2.07660 19 ft 1 kts 156°
2026-04-10 10:16 41.29166 2.07660 19 ft 1 kts 156°
2026-04-10 10:16 41.29157 2.07683 19 ft 7 kts 102°
2026-04-10 10:17 41.29176 2.07759 19 ft 10 kts 66°
2026-04-10 10:17 41.29208 2.07856 21 ft 13 kts 66°
2026-04-10 10:17 41.29248 2.07973 19 ft 15 kts 65°
2026-04-10 10:17 41.29286 2.08084 19 ft 11 kts 65°
2026-04-10 10:18 41.29321 2.08186 21 ft 13 kts 65°
2026-04-10 10:18 41.29360 2.08300 20 ft 11 kts 66°
2026-04-10 10:18 41.29336 2.08395 20 ft 13 kts 148°
2026-04-10 10:18 41.29251 2.08447 22 ft 14 kts 155°
2026-04-10 10:19 41.29151 2.08508 19 ft 18 kts 155°
2026-04-10 10:19 41.29036 2.08577 19 ft 18 kts 155°
2026-04-10 10:19 41.28922 2.08646 18 ft 17 kts 155°
2026-04-10 10:19 41.28867 2.08739 16 ft 14 kts 81°
2026-04-10 10:20 41.28908 2.08865 18 ft 16 kts 65°
2026-04-10 10:20 41.28959 2.09014 16 ft 19 kts 65°
2026-04-10 10:20 41.29017 2.09184 17 ft 21 kts 65°
2026-04-10 10:20 41.29080 2.09368 18 ft 23 kts 65°
2026-04-10 10:21 41.29138 2.09536 16 ft 19 kts 65°
2026-04-10 10:21 41.29195 2.09701 16 ft 20 kts 66°
2026-04-10 10:21 41.29251 2.09866 19 ft 17 kts 65°
2026-04-10 10:21 41.29313 2.10010 17 ft 19 kts 65°
2026-04-10 10:22 41.29362 2.10161 16 ft 17 kts 71°
2026-04-10 10:22 41.29309 2.10283 13 ft 15 kts 154°
2026-04-10 10:22 41.29230 2.10321 14 ft 8 kts 192°
2026-04-10 10:22 41.29200 2.10266 16 ft 6 kts 245°
2026-04-10 10:23 41.29199 2.10261 15 ft 0 kts 246°
2026-04-10 10:23 41.29147 2.10107 18 ft 54 kts 245°
2026-04-10 10:23 41.28883 2.09339 18 ft 126 kts 245°
2026-04-10 10:23 41.28441 2.08069 162 ft 166 kts 245°
2026-04-10 10:24 41.27785 2.06842 872 ft 164 kts 217°
2026-04-10 10:24 41.26717 2.06239 1420 ft 177 kts 190°
2026-04-10 10:24 41.25419 2.06135 1713 ft 196 kts 181°
2026-04-10 10:24 41.23989 2.06100 2032 ft 215 kts 181°
2026-04-10 10:25 41.22465 2.06050 2493 ft 224 kts 181°
2026-04-10 10:25 41.20902 2.05966 3200 ft 223 kts 184°
2026-04-10 10:25 41.19355 2.05850 3960 ft 223 kts 184°
2026-04-10 10:25 41.17835 2.05611 4674 ft 224 kts 195°
2026-04-10 10:26 41.16378 2.04836 5260 ft 232 kts 206°
2026-04-10 10:26 41.14876 2.03867 5690 ft 249 kts 207°
2026-04-10 10:26 41.13315 2.02827 6431 ft 252 kts 208°
2026-04-10 10:26 41.11757 2.01760 7268 ft 253 kts 209°
2026-04-10 10:27 41.10192 2.00664 8070 ft 256 kts 209°
2026-04-10 10:27 41.08648 1.99480 8820 ft 258 kts 219°
2026-04-10 10:27 41.07387 1.97785 9535 ft 260 kts 236°
2026-04-10 10:27 41.06524 1.95599 9879 ft 279 kts 253°
2026-04-10 10:28 41.06006 1.93072 10401 ft 290 kts 256°
2026-04-10 10:28 41.05475 1.90374 10587 ft 314 kts 256°
2026-04-10 10:28 41.04760 1.87534 10812 ft 333 kts 250°
2026-04-10 10:28 41.03900 1.84651 11393 ft 339 kts 250°
2026-04-10 10:29 41.03028 1.81733 12080 ft 341 kts 250°
2026-04-10 10:29 41.02152 1.78809 12787 ft 342 kts 250°
2026-04-10 10:29 41.01271 1.75864 13425 ft 345 kts 250°
2026-04-10 10:29 41.00379 1.72890 14031 ft 349 kts 250°
2026-04-10 10:30 40.99480 1.69886 14614 ft 353 kts 250°
2026-04-10 10:30 40.98591 1.66883 15201 ft 356 kts 250°
2026-04-10 10:30 40.97673 1.63822 15780 ft 360 kts 250°
2026-04-10 10:30 40.96738 1.60727 16353 ft 364 kts 248°
2026-04-10 10:31 40.95423 1.57850 16893 ft 370 kts 231°
2026-04-10 10:31 40.93671 1.55322 17446 ft 374 kts 228°
2026-04-10 10:31 40.91884 1.52798 17993 ft 377 kts 229°
2026-04-10 10:31 40.90096 1.50239 18510 ft 381 kts 229°
2026-04-10 10:32 40.88295 1.47652 19035 ft 384 kts 229°
2026-04-10 10:32 40.86478 1.45048 19578 ft 387 kts 229°
2026-04-10 10:32 40.84646 1.42428 20103 ft 390 kts 229°
2026-04-10 10:32 40.82796 1.39795 20649 ft 393 kts 228°
2026-04-10 10:33 40.80925 1.37138 21157 ft 396 kts 228°
2026-04-10 10:33 40.79053 1.34460 21681 ft 398 kts 228°
2026-04-10 10:33 40.77158 1.31764 22169 ft 401 kts 228°
2026-04-10 10:33 40.75257 1.29057 22677 ft 404 kts 229°
2026-04-10 10:34 40.73343 1.26330 23122 ft 406 kts 228°
2026-04-10 10:34 40.71437 1.23621 23560 ft 409 kts 228°
2026-04-10 10:34 40.69501 1.20866 23988 ft 411 kts 228°
2026-04-10 10:34 40.67553 1.18090 24400 ft 413 kts 228°
2026-04-10 10:35 40.65589 1.15311 24806 ft 416 kts 228°
2026-04-10 10:35 40.63611 1.12527 25202 ft 418 kts 228°
2026-04-10 10:35 40.61626 1.09719 25590 ft 419 kts 228°
2026-04-10 10:35 40.59638 1.06902 25969 ft 421 kts 228°
2026-04-10 10:36 40.57637 1.04071 26345 ft 423 kts 228°
2026-04-10 10:36 40.55629 1.01235 26710 ft 425 kts 228°
2026-04-10 10:36 40.53616 0.98385 27059 ft 427 kts 229°
2026-04-10 10:36 40.51608 0.95499 27411 ft 428 kts 229°
2026-04-10 10:37 40.49588 0.92607 27753 ft 430 kts 229°
2026-04-10 10:37 40.47560 0.89714 28098 ft 431 kts 229°
2026-04-10 10:37 40.45525 0.86808 28434 ft 432 kts 229°
2026-04-10 10:37 40.43481 0.83903 28725 ft 434 kts 229°
2026-04-10 10:38 40.41430 0.80995 29018 ft 435 kts 229°
2026-04-10 10:38 40.39379 0.78069 29300 ft 437 kts 229°
2026-04-10 10:38 40.37314 0.75138 29593 ft 438 kts 229°
2026-04-10 10:38 40.35243 0.72210 29864 ft 439 kts 229°
2026-04-10 10:39 40.33168 0.69267 30150 ft 440 kts 229°
2026-04-10 10:39 40.31094 0.66322 30422 ft 441 kts 229°
2026-04-10 10:39 40.29007 0.63370 30656 ft 442 kts 229°
2026-04-10 10:39 40.26918 0.60413 30873 ft 443 kts 229°
2026-04-10 10:40 40.24823 0.57444 31146 ft 443 kts 229°
2026-04-10 10:40 40.22732 0.54496 31472 ft 442 kts 229°
2026-04-10 10:40 40.20643 0.51556 31779 ft 441 kts 229°
2026-04-10 10:40 40.18553 0.48627 32084 ft 439 kts 229°
2026-04-10 10:41 40.16468 0.45705 32372 ft 439 kts 229°
2026-04-10 10:41 40.14390 0.42790 32647 ft 438 kts 229°
2026-04-10 10:41 40.12314 0.39873 32932 ft 437 kts 229°
2026-04-10 10:41 40.10269 0.37005 33215 ft 436 kts 229°
2026-04-10 10:42 40.08204 0.34103 33500 ft 435 kts 229°
2026-04-10 10:42 40.06139 0.31224 33756 ft 434 kts 229°
2026-04-10 10:42 40.04075 0.28350 34004 ft 434 kts 229°
2026-04-10 10:42 40.02017 0.25465 34256 ft 434 kts 229°
2026-04-10 10:43 39.99960 0.22587 34508 ft 433 kts 229°
2026-04-10 10:43 39.97905 0.19721 34772 ft 432 kts 229°
2026-04-10 10:43 39.95854 0.16871 35038 ft 430 kts 229°
2026-04-10 10:43 39.93825 0.14036 35147 ft 426 kts 229°
2026-04-10 10:44 39.91807 0.11219 35157 ft 424 kts 229°
2026-04-10 10:44 39.88431 0.06543 35146 ft 422 kts 229°
2026-04-10 10:45 39.84417 0.00973 35141 ft 422 kts 229°
2026-04-10 10:45 39.80423 -0.04569 35147 ft 424 kts 227°
2026-04-10 10:46 39.76379 -0.10153 35146 ft 424 kts 226°
2026-04-10 10:46 39.72332 -0.15732 35154 ft 425 kts 226°
2026-04-10 10:47 39.68267 -0.21316 35161 ft 425 kts 226°
2026-04-10 10:47 39.64202 -0.26913 35161 ft 426 kts 226°
2026-04-10 10:48 39.60126 -0.32495 35162 ft 426 kts 226°
2026-04-10 10:48 39.56053 -0.38077 35163 ft 426 kts 226°
2026-04-10 10:49 39.52009 -0.43607 35161 ft 425 kts 226°
2026-04-10 10:49 39.48002 -0.49232 35158 ft 425 kts 231°
2026-04-10 10:50 39.44439 -0.55341 35159 ft 425 kts 232°
2026-04-10 10:50 39.40869 -0.61441 35159 ft 425 kts 232°
2026-04-10 10:51 39.37292 -0.67533 35160 ft 425 kts 232°
2026-04-10 10:51 39.33710 -0.73623 35161 ft 426 kts 232°
2026-04-10 10:52 39.30139 -0.79663 35166 ft 425 kts 232°
2026-04-10 10:52 39.26554 -0.85736 35166 ft 425 kts 232°
2026-04-10 10:53 39.22968 -0.91812 35169 ft 425 kts 232°
2026-04-10 10:53 39.19381 -0.97874 35168 ft 425 kts 232°
2026-04-10 10:54 39.15779 -1.03927 35170 ft 425 kts 232°
2026-04-10 10:54 39.12207 -1.09929 35171 ft 425 kts 232°
2026-04-10 10:55 39.08611 -1.15962 35177 ft 425 kts 232°
2026-04-10 10:55 39.05007 -1.21984 35178 ft 425 kts 232°
2026-04-10 10:56 39.01412 -1.28006 35179 ft 424 kts 232°
2026-04-10 10:56 38.97811 -1.34015 35179 ft 424 kts 231°
2026-04-10 10:57 38.94217 -1.40012 35181 ft 424 kts 231°
2026-04-10 10:57 38.90617 -1.46000 35180 ft 423 kts 231°
2026-04-10 10:58 38.87013 -1.51974 35180 ft 422 kts 231°
2026-04-10 10:58 38.83409 -1.57927 35181 ft 422 kts 231°
2026-04-10 10:59 38.79832 -1.63835 35181 ft 421 kts 231°
2026-04-10 10:59 38.76239 -1.69773 35182 ft 421 kts 231°
2026-04-10 11:00 38.72637 -1.75689 35181 ft 420 kts 231°
2026-04-10 11:00 38.69050 -1.81585 35181 ft 420 kts 231°
2026-04-10 11:01 38.65461 -1.87472 35180 ft 419 kts 231°
2026-04-10 11:01 38.61873 -1.93346 35181 ft 419 kts 231°
2026-04-10 11:02 38.58285 -1.99203 35178 ft 418 kts 230°
2026-04-10 11:02 38.54698 -2.05056 35175 ft 418 kts 231°
2026-04-10 11:03 38.51135 -2.10877 35169 ft 418 kts 231°
2026-04-10 11:03 38.47541 -2.16716 35167 ft 418 kts 230°
2026-04-10 11:04 38.43950 -2.22553 35165 ft 418 kts 230°
2026-04-10 11:04 38.40351 -2.28375 35161 ft 418 kts 230°
2026-04-10 11:05 38.34840 -2.36970 35154 ft 416 kts 225°
2026-04-10 11:05 38.30870 -2.42277 35154 ft 416 kts 225°
2026-04-10 11:06 38.28879 -2.44954 34980 ft 415 kts 225°
2026-04-10 11:06 38.26896 -2.47616 34729 ft 413 kts 225°
2026-04-10 11:06 38.24919 -2.50263 34481 ft 413 kts 225°
2026-04-10 11:06 38.22946 -2.52901 33989 ft 410 kts 225°
2026-04-10 11:07 38.20989 -2.55531 33453 ft 407 kts 225°
2026-04-10 11:07 38.19058 -2.58119 33035 ft 401 kts 225°
2026-04-10 11:07 38.17151 -2.60679 32586 ft 396 kts 225°
2026-04-10 11:07 38.15257 -2.63201 32144 ft 391 kts 225°
2026-04-10 11:08 38.13394 -2.65681 31715 ft 385 kts 224°
2026-04-10 11:08 38.11553 -2.68124 31275 ft 381 kts 224°
2026-04-10 11:08 38.09734 -2.70545 30847 ft 377 kts 224°
2026-04-10 11:08 38.07940 -2.72942 30424 ft 373 kts 224°
2026-04-10 11:09 38.06159 -2.75309 29999 ft 369 kts 224°
2026-04-10 11:09 38.04391 -2.77655 29558 ft 366 kts 224°
2026-04-10 11:09 38.02643 -2.79984 29142 ft 363 kts 224°
2026-04-10 11:09 38.00908 -2.82294 28720 ft 360 kts 224°
2026-04-10 11:10 37.99182 -2.84579 28304 ft 358 kts 223°
2026-04-10 11:10 37.97459 -2.86852 27877 ft 355 kts 223°
2026-04-10 11:10 37.95754 -2.89108 27449 ft 353 kts 223°
2026-04-10 11:10 37.94088 -2.91318 27050 ft 350 kts 223°
2026-04-10 11:11 37.92416 -2.93535 26635 ft 347 kts 223°
2026-04-10 11:11 37.90750 -2.95730 26226 ft 346 kts 223°
2026-04-10 11:11 37.89091 -2.97923 25823 ft 344 kts 223°
2026-04-10 11:11 37.87438 -3.00111 25400 ft 343 kts 223°
2026-04-10 11:12 37.85789 -3.02284 24978 ft 342 kts 223°
2026-04-10 11:12 37.84138 -3.04448 24562 ft 341 kts 223°
2026-04-10 11:12 37.82498 -3.06601 24148 ft 339 kts 223°
2026-04-10 11:12 37.80868 -3.08754 23736 ft 338 kts 223°
2026-04-10 11:13 37.79242 -3.10896 23330 ft 337 kts 223°
2026-04-10 11:13 37.77621 -3.13017 22921 ft 335 kts 223°
2026-04-10 11:13 37.76010 -3.15137 22512 ft 333 kts 223°
2026-04-10 11:13 37.74410 -3.17244 22102 ft 331 kts 223°
2026-04-10 11:14 37.72814 -3.19332 21701 ft 329 kts 222°
2026-04-10 11:14 37.71225 -3.21410 21306 ft 328 kts 223°
2026-04-10 11:14 37.69651 -3.23479 20934 ft 326 kts 222°
2026-04-10 11:14 37.68081 -3.25531 20503 ft 323 kts 222°
2026-04-10 11:15 37.66521 -3.27572 20101 ft 322 kts 222°
2026-04-10 11:15 37.64966 -3.29606 19704 ft 320 kts 222°
2026-04-10 11:15 37.63422 -3.31627 19302 ft 318 kts 222°
2026-04-10 11:15 37.61892 -3.33632 18908 ft 316 kts 222°
2026-04-10 11:16 37.60386 -3.35599 18516 ft 315 kts 222°
2026-04-10 11:16 37.58866 -3.37580 18122 ft 313 kts 222°
2026-04-10 11:16 37.57353 -3.39547 17742 ft 311 kts 222°
2026-04-10 11:16 37.55849 -3.41499 17339 ft 310 kts 221°
2026-04-10 11:17 37.54358 -3.43443 16946 ft 308 kts 221°
2026-04-10 11:17 37.52877 -3.45371 16563 ft 305 kts 221°
2026-04-10 11:17 37.51405 -3.47288 16175 ft 303 kts 221°
2026-04-10 11:17 37.49942 -3.49188 15795 ft 301 kts 221°
2026-04-10 11:18 37.48491 -3.51071 15420 ft 299 kts 221°
2026-04-10 11:18 37.47043 -3.52942 15035 ft 297 kts 221°
2026-04-10 11:18 37.45604 -3.54806 14665 ft 296 kts 221°
2026-04-10 11:18 37.44179 -3.56655 14279 ft 293 kts 221°
2026-04-10 11:19 37.42761 -3.58493 13899 ft 292 kts 220°
2026-04-10 11:19 37.41345 -3.60320 13524 ft 291 kts 220°
2026-04-10 11:19 37.39940 -3.62138 13152 ft 288 kts 220°
2026-04-10 11:19 37.38627 -3.64061 12749 ft 292 kts 228°
2026-04-10 11:20 37.37446 -3.66127 12375 ft 289 kts 228°
2026-04-10 11:20 37.36273 -3.68166 11969 ft 287 kts 228°
2026-04-10 11:20 37.35110 -3.70188 11620 ft 284 kts 227°
2026-04-10 11:20 37.33949 -3.72197 11239 ft 284 kts 227°
2026-04-10 11:21 37.32789 -3.74205 10860 ft 284 kts 227°
2026-04-10 11:21 37.31622 -3.76203 10469 ft 284 kts 227°
2026-04-10 11:21 37.30447 -3.78189 10126 ft 282 kts 227°
2026-04-10 11:21 37.29301 -3.80113 9846 ft 276 kts 227°
2026-04-10 11:22 37.28166 -3.82028 9669 ft 272 kts 227°
2026-04-10 11:22 37.27052 -3.83933 9495 ft 270 kts 227°
2026-04-10 11:22 37.25948 -3.85839 9341 ft 269 kts 227°
2026-04-10 11:22 37.24852 -3.87752 8955 ft 272 kts 228°
2026-04-10 11:23 37.23736 -3.89680 8516 ft 274 kts 227°
2026-04-10 11:23 37.22621 -3.91613 8152 ft 273 kts 228°
2026-04-10 11:23 37.21529 -3.93545 7911 ft 268 kts 229°
2026-04-10 11:23 37.20467 -3.95445 7656 ft 265 kts 231°
2026-04-10 11:24 37.19696 -3.97586 7220 ft 276 kts 251°
2026-04-10 11:24 37.19567 -4.00017 6830 ft 285 kts 275°
2026-04-10 11:24 37.20259 -4.02335 6534 ft 286 kts 302°
2026-04-10 11:24 37.21467 -4.04319 6201 ft 284 kts 308°
2026-04-10 11:25 37.22678 -4.06167 6269 ft 264 kts 310°
2026-04-10 11:25 37.23863 -4.07855 6246 ft 252 kts 311°
2026-04-10 11:25 37.24907 -4.09538 6211 ft 247 kts 291°
2026-04-10 11:25 37.25147 -4.11624 6128 ft 242 kts 253°
2026-04-10 11:26 37.24405 -4.13400 6096 ft 223 kts 216°
2026-04-10 11:26 37.23091 -4.14213 6090 ft 206 kts 184°
2026-04-10 11:26 37.21693 -4.14126 6098 ft 199 kts 160°
2026-04-10 11:26 37.20489 -4.13345 6091 ft 195 kts 138°
2026-04-10 11:27 37.19653 -4.12023 6099 ft 195 kts 118°
2026-04-10 11:27 37.19237 -4.10369 6142 ft 205 kts 103°
2026-04-10 11:27 37.19123 -4.08563 6132 ft 209 kts 97°
2026-04-10 11:27 37.19059 -4.06739 6040 ft 207 kts 96°
2026-04-10 11:28 37.18995 -4.04998 5938 ft 192 kts 97°
2026-04-10 11:28 37.18909 -4.03389 5771 ft 179 kts 99°
2026-04-10 11:28 37.18810 -4.01884 5543 ft 169 kts 98°
2026-04-10 11:28 37.18761 -4.00399 5282 ft 178 kts 96°
2026-04-10 11:29 37.18710 -3.98811 5054 ft 182 kts 95°
2026-04-10 11:29 37.18687 -3.97213 4822 ft 183 kts 93°
2026-04-10 11:29 37.18712 -3.95645 4553 ft 181 kts 92°
2026-04-10 11:29 37.18739 -3.94077 4293 ft 178 kts 91°
2026-04-10 11:30 37.18770 -3.92564 4024 ft 169 kts 92°
2026-04-10 11:30 37.18777 -3.91101 3774 ft 166 kts 92°
2026-04-10 11:30 37.18793 -3.89687 3593 ft 156 kts 92°
2026-04-10 11:30 37.18810 -3.88387 3399 ft 144 kts 91°
2026-04-10 11:31 37.18831 -3.87152 3149 ft 140 kts 93°
2026-04-10 11:31 37.18819 -3.85893 2944 ft 149 kts 95°
2026-04-10 11:31 37.18813 -3.84577 2751 ft 152 kts 92°
2026-04-10 11:31 37.18834 -3.83263 2532 ft 149 kts 92°
2026-04-10 11:32 37.18848 -3.81955 2333 ft 150 kts 92°
2026-04-10 11:32 37.18857 -3.80661 2125 ft 146 kts 93°
2026-04-10 11:32 37.18864 -3.79393 1921 ft 146 kts 92°
2026-04-10 11:32 37.18869 -3.78223 1870 ft 117 kts 89°
2026-04-10 11:33 37.18874 -3.77417 1864 ft 67 kts 90°
2026-04-10 11:33 37.18835 -3.77086 1869 ft 26 kts 116°
2026-04-10 11:33 37.18766 -3.76949 1862 ft 10 kts 146°
2026-04-10 11:33 37.18714 -3.76994 1866 ft 12 kts 263°
2026-04-10 11:34 37.18713 -3.77110 1865 ft 15 kts 269°
2026-04-10 11:34 37.18712 -3.77246 1865 ft 16 kts 269°
2026-04-10 11:34 37.18710 -3.77390 1867 ft 17 kts 269°
2026-04-10 11:34 37.18710 -3.77547 1867 ft 17 kts 270°
2026-04-10 11:35 37.18674 -3.77617 1864 ft 10 kts 191°
2026-04-10 11:35 37.18610 -3.77618 1867 ft 8 kts 179°
2026-04-10 11:35 37.18571 -3.77623 1871 ft 4 kts 210°
2026-04-10 11:35 37.18567 -3.77643 1870 ft 4 kts 263°
2026-04-10 11:36 37.18567 -3.77675 1871 ft 3 kts 269°
2026-04-10 11:36 37.18567 -3.77679 1871 ft 0 kts 269°